Bakersfield, CA

6:37 PM PDT on September 28, 2016 (GMT -0700)
Meadows

Weather History for KBFL - August, 2014

Change the Weather History Date:

Monday, August 11, 2014

  Actual Average Record
Temperature  
Mean Temperature 87 °F 83 °F  
Max Temperature 102 °F 97 °F 111 °F (1940)
Min Temperature 71 °F 70 °F 54 °F (1932)
Degree Days  
Heating Degree Days 0    
Month to date heating degree days 0  
Since 1 June heating degree days 0  
Since 1 July heating degree days 0  
Cooling Degree Days 22    
Month to date cooling degree days 239  
Year to date cooling degree days 1894  
Since 1 June cooling degree days 1442  
Growing Degree Days 36 (Base 50)    
Moisture  
Dew Point 51 °F    
Average Humidity 35    
Maximum Humidity 53    
Minimum Humidity 16    
Precipitation  
Precipitation 0.00 in 0.00 in 0.02 in (1961)
Month to date precipitation T 0.01  
Year to date precipitation 1.34 4.40  
Since 1 July precipitation T  
Snow  
Snow 0.00 in - - ()
Month to date snowfall 0.0  
Since 1 June snowfall 0.0  
Since 1 July snowfall 0.0  
Snow Depth 0.00 in    
Sea Level Pressure  
Sea Level Pressure 29.85 in    
Wind  
Wind Speed 7 mph (NW)    
Max Wind Speed 20 mph    
Max Gust Speed 23 mph    
Visibility 10 miles    
Events      
T = Trace of Precipitation, MM = Missing Value Source: NWS Daily Summary

Daily Weather History Graph

Daily Weather History Graph

Search for Another Location

Airport or City:

Trip Planner

Search our weather history database for the weather conditions in past years. The results will help you decide how hot, cold, wet, or windy it might be!

Date:

Astronomy

Aug. 11, 2014 Rise Set
Actual Time 6:12 AM PDT 7:49 PM PDT
Civil Twilight 5:45 AM PDT 8:16 PM PDT
Nautical Twilight 5:12 AM PDT 8:49 PM PDT
Astronomical Twilight 4:37 AM PDT 9:24 PM PDT
Moon 8:26 PM PDT (8/11) 7:19 AM PDT (8/11)
Length of Visible Light 14h 31m
Length of Day
13h 37m
Full, 98% of the Moon is Illuminated
Aug 11
Full
Aug 17
Last Quarter
Aug 25
New
Sep 2
First Quarter
Sep 8
Full

Hourly Weather History & Observations

Time (PDT) Temp. Heat Index Dew Point Humidity Pressure Visibility Wind Dir Wind Speed Gust Speed Precip Events Conditions
12:54 AM 82.0 °F - 52.0 °F 35% 29.88 in 10.0 mi North 9.2 mph - N/A   Clear
1:54 AM 80.6 °F - 51.8 °F 37% 29.89 in 10.0 mi North 5.8 mph - N/A   Clear
2:54 AM 78.1 °F - 53.1 °F 42% 29.87 in 10.0 mi WNW 8.1 mph - N/A   Clear
3:54 AM 72.0 °F - 54.0 °F 53% 29.88 in 10.0 mi NNW 5.8 mph - N/A   Clear
4:54 AM 72.0 °F - 54.0 °F 53% 29.88 in 10.0 mi NW 5.8 mph - N/A   Clear
5:54 AM 72.0 °F - 51.1 °F 48% 29.89 in 10.0 mi Calm Calm - N/A   Clear
6:54 AM 73.9 °F - 54.0 °F 50% 29.91 in 10.0 mi Calm Calm - N/A   Clear
7:54 AM 75.0 °F - 53.1 °F 46% 29.92 in 10.0 mi Calm Calm - N/A   Clear
8:54 AM 78.1 °F - 53.1 °F 42% 29.92 in 10.0 mi Calm Calm - N/A   Clear
9:54 AM 81.0 °F 80.5 °F 54.0 °F 39% 29.92 in 10.0 mi West 3.5 mph - N/A   Clear
10:54 AM 86.0 °F - 50.0 °F 29% 29.90 in 10.0 mi SW 3.5 mph - N/A   Clear
11:54 AM 89.1 °F - 51.1 °F 27% 29.88 in 10.0 mi Variable 3.5 mph - N/A   Clear
12:54 PM 93.9 °F - 48.9 °F 21% 29.86 in 10.0 mi Variable 5.8 mph - N/A   Clear
1:54 PM 95.0 °F - 52.0 °F 23% 29.83 in 10.0 mi NW 4.6 mph - N/A   Clear
2:54 PM 98.1 °F 95.7 °F 53.1 °F 22% 29.81 in 10.0 mi WNW 10.4 mph - N/A   Clear
3:54 PM 100.0 °F - 50.0 °F 18% 29.78 in 10.0 mi NW 6.9 mph - N/A   Clear
4:54 PM 102.0 °F - 48.9 °F 17% 29.77 in 10.0 mi WNW 3.5 mph - N/A   Clear
5:54 PM 100.0 °F - 52.0 °F 20% 29.77 in 10.0 mi NW 11.5 mph - N/A   Clear
6:54 PM 99.0 °F - 52.0 °F 21% 29.77 in 10.0 mi NW 13.8 mph - N/A   Partly Cloudy
7:54 PM 98.1 °F - 48.9 °F 19% 29.78 in 10.0 mi North 12.7 mph - N/A   Overcast
8:54 PM 91.9 °F - 51.1 °F 25% 29.81 in 10.0 mi NNW 17.3 mph - N/A   Scattered Clouds
9:54 PM 86.0 °F - 48.0 °F 27% 29.84 in 10.0 mi NNW 12.7 mph - N/A   Partly Cloudy
10:54 PM 84.9 °F - 44.1 °F 24% 29.86 in 10.0 mi NNW 4.6 mph - N/A   Partly Cloudy
11:54 PM 84.9 °F - 41.0 °F 21% 29.86 in 10.0 mi NNW 11.5 mph - N/A   Clear